Location: Unspecified
(0.0000°N, 0.0000°E)
Time: 03:03:15
(UTC+01:00)

Vanguard 1 - Visible Passes

Search period start: 19 February 2018 00:00
Search period end: 01 March 2018 00:00
Orbit: 650 x 3833 km, 34.2° (Epoch: 17 February)

Date Brightness Start Highest point End Pass type
(mag) Time Alt. Az. Time Alt. Az. Time Alt. Az.
19 Feb 13.1 03:02:23 20° SSE 03:02:23 20° SSE 03:07:46 10° SSE visible
19 Feb 13.4 05:17:22 10° SW 05:25:16 16° S 05:35:26 10° SSE visible
20 Feb 13.1 03:22:08 19° S 03:22:08 19° S 03:28:38 10° SSE visible
20 Feb 13.6 05:40:34 10° SSW 05:48:43 15° S 05:58:51 10° SE visible
21 Feb 13.1 03:41:54 16° S 03:41:54 16° S 03:49:30 10° SSE visible
21 Feb 13.7 06:03:07 10° SSW 06:12:19 16° S 06:23:33 10° SE visible
22 Feb 13.2 04:01:39 12° SSW 04:04:20 13° S 04:10:33 10° SSE visible
22 Feb 13.8 06:24:56 10° SSW 06:35:52 18° SSE 06:49:08 10° SE visible
23 Feb 13.3 04:23:06 10° SSW 04:27:20 12° S 04:32:18 10° SSE visible
23 Feb 13.8 06:46:14 10° SSW 06:59:12 21° SSE 07:14:47 10° ESE visible
24 Feb 13.5 04:46:05 10° S 04:50:33 12° S 04:55:44 10° SSE visible
25 Feb 13.6 05:07:44 10° S 05:13:51 13° SSE 05:21:08 10° SE visible
26 Feb 13.7 05:28:40 10° SSW 05:37:03 15° SSE 05:47:27 10° SE visible
27 Feb 13.7 05:49:19 10° SSW 06:00:02 19° SSE 06:13:41 10° ESE visible
27 Feb 11.3 20:39:35 10° N 20:41:09 14° N 20:41:09 14° N visible
28 Feb 13.7 06:09:51 10° SSW 06:22:40 25° SSE 06:39:17 10° ESE visible
28 Feb 11.2 20:59:31 10° NNW 21:01:24 19° NNW 21:01:24 19° NNW visible
